www.pogodaiklimat.ru

Погода и климат >> Архив погоды >> Россия >> Оренбургская область >> Беляевка


ПОГОДА в Беляевке

  • Прогноз погоды в Беляевке
  • Монитор погоды в Беляевке
  • Климат города

АРХИВ ПОГОДЫ в Беляевке

Время (UTC), дата Ветер
(напр.,м/с)
 
Видим.   Явления Облачность Т
(С)
Тd
(С)
f
(%)
Тe
(С)
Тes
(С)
Комфортность P
(гПа)
Po
(гПа)
Тmin
(С)
Tmax
(С)
R
(мм)
R24
(мм)
S
(см)
18 12.10 СЗ 3 10 км 10/0 660 м
[As op]
+11.8 -2.0 38 +11 +11 1016.7 1000.6
21 12.10 Ю 2 10 км 10/0 630 м
[As op]
+9.1 +0.8 56 +8 +8 1016.4 1000.2
00 13.10 ЮВ 1 4000 м дымка 10/0 660 м
[As op]
+7.7 +4.6 81 +7 +7 1016.0 999.7
03 13.10 ЮЗ 1 4000 м дымка 9/0
[Ac trans Ci fib]
+3.3 +2.6 95 +2 +2 1016.2 999.6 +3.0
06 13.10 СЗ 2 20 км 8/0
[Ac trans Ci fib]
+10.1 +1.5 55 +9 +11 1016.2 1000.0
09 13.10 З 2 20 км 6/0
[Ci fib]
+15.6 +1.0 37 +16 +20 1014.8 998.9
12 13.10 З 2 20 км 6/0
[Ci fib]
+16.0 +1.0 36 +16 +17 1014.3 998.5
15 13.10 З 1 10 км 8/0
[Ac trans]
+9.2 +1.5 59 +9 +9 1015.5 999.3 +16.9
18 13.10 СВ 1 10 км ясно +1.6 -0.9 83 -0 -0 1015.9 999.2
21 13.10 В 1 4000 м ясно -1.3 -2.2 94 -4 -4 1016.2 999.3
00 14.10 В 1 4000 м дымка ясно -3.8 -4.4 96 -6 -6 1016.5 999.5
03 14.10 В 2 4000 м дымка ясно -5.0 -5.7 95 -9 -9 1017.4 1000.3 -5.1
06 14.10 В 1 20 км ясно +6.2 -0.1 64 +5 +9 1017.1 1000.7
09 14.10 СЗ 1 20 км ясно +15.1 -0.1 35 +16 +22 1015.6 999.7
12 14.10 З 1 20 км ясно +15.8 -1.0 32 +17 +18 1014.9 999.1
15 14.10 В 1 10 км 4/4 700 м
[Sc]
+7.2 -0.9 56 +7 +7 1015.9 999.5 +16.8
18 14.10 В 2 10 км ясно +0.7 -2.1 82 -3 -3 1016.2 999.4
21 14.10 В 2 10 км ясно +1.7 -1.3 80 -2 -2 1015.9 999.2
00 15.10 В 2 4000 м слабый дождь 10/0
[As op]
+3.9 +0.9 81 +1 +1 1015.2 998.7
03 15.10 В 3 4000 м слабый дождь 10/0
[As op]
+4.5 +3.8 95 +1 +1 1014.4 997.9 -0.2 1
06 15.10 ЮВ 3 4000 м слабый дождь 10/0
[As op]
+8.3 +7.5 95 +5 +6 1013.5 997.3
09 15.10 Ю 4 4000 м дымка {дождь} 10/0
[As op]
+11.7 +10.0 89 +9 +10 1012.2 996.2
12 15.10 ЮВ 2 4000 м слабый дождь 10/0
[As op]
+11.4 +10.4 94 +10 +10 1010.8 994.8
15 15.10 ЮВ 2 4000 м слабый дождь 10/0
[As op]
+10.5 +9.8 95 +9 +9 1009.5 993.5 +12.2 1
18 15.10 ЮЗ 1 4000 м слабый дождь 10/0 600 м
[As op]
+9.9 +9.3 96 +9 +9 1008.1 992.1
21 15.10 В 2 4000 м слабый дождь 10/0 600 м
[As op]
+9.8 +9.2 96 +8 +8 1006.0 990.0
00 16.10 В 4 4000 м слабый дождь 10/0 600 м
[As op]
+9.3 +8.6 95 +6 +6 1003.7 987.7
03 16.10 ЮВ 5 4000 м дождь 10/0 600 м
[As op]
+8.8 +7.3 90 +5 +5 1002.2 986.2 +8.6 16
06 16.10 ЮВ 5 4000 м дымка {дождь} 10/10 570 м
[Frnb Ns]
+9.9 +8.7 92 +7 +7 1001.7 985.8
09 16.10 Ю 4
{10}
4000 м слабый дождь 10/10 570 м
[Frnb Ns]
+11.1 +9.6 90 +9 +9 1002.4 986.6
12 16.10 ЮВ 3 20 км {дождь} 9/9 720 м
[Sc]
+11.5 +7.2 75 +10 +10 1002.9 987.1
15 16.10 В 3 4000 м дымка 3/0
[Ac trans]
+9.4 +8.4 93 +7 +7 1003.6 987.7 +12.5 1
18 16.10 В 5 4000 м дымка 8/0
[Ac trans]
+9.4 +8.1 92 +6 +6 1003.1 987.1
21 16.10 ЮВ 4 4000 м дымка 10/0
[Ac As]
+10.0 +7.5 84 +7 +7 1002.7 986.7
00 17.10 В 3 4000 м слабый дождь 10/0
[As op]
+8.6 +7.9 95 +6 +6 1002.5 986.5
03 17.10 В 2 4000 м слабый дождь 10/0
[As op]
+7.2 +6.6 96 +5 +5 1004.0 987.9 +7.2 8
06 17.10 В 3 4000 м слабый дождь 10/10 630 м
[Frnb Ns]
+8.7 +8.0 95 +6 +6 1004.6 988.5
09 17.10 ЮВ 2 20 км {дождь} 10/10 700 м
[Cb cap]
+10.3 +7.3 82 +9 +9 1005.0 989.1
12 17.10 штиль 0 20 км {ливн. осадки} 8/8 800 м
[Cb cap]
+9.6 +6.1 79 +9 +9 1005.4 989.4
15 17.10 СВ 1 10 км 8/8 800 м
[Sc]
+7.1 +6.2 94 +6 +6 1006.1 989.9 +10.4 5
18 17.10 ЮЗ 1 500 м туман ясно +3.1 +2.7 97 +1 +1 1006.3 989.9
21 17.10 СЗ 2 2000 м дымка {туман} ясно +4.7 +4.3 97 +2 +2 1005.7 989.4
00 18.10 З 3 4000 м дымка {туман} ясно +4.9 +4.4 97 +1 +1 1006.4 990.1
03 18.10 СЗ 2 4000 м дымка 9/9 720 м
[Sc]
+2.2 +1.6 96 -1 -1 1007.4 990.9 +1.5
06 18.10 З 5 4000 м дымка 10/0
[As trans]
+6.2 +5.3 94 +2 +2 1007.7 991.4
09 18.10 СЗ 7
{11}
10 км 10/8 720 м
[Frnb As op]
+8.2 +5.1 81 +4 +4 1008.6 992.5
12 18.10 З 6
{12}
20 км 9/9 700 м
[Sc]
+8.3 +1.8 64 +5 +5 1010.3 994.1
15 18.10 З 3
{10}
10 км 4/4 600 м
[Sc]
+4.5 +2.4 86 +1 +1 1011.6 995.2 +9.1
18 18.10 З 4 10 км 9/9 720 м
[Sc]
+6.8 +3.6 80 +3 +3 1011.1 994.8
21 18.10 З 4 10 км 9/9 720 м
[Sc]
+6.9 +4.1 82 +3 +3 1010.5 994.3
00 19.10 ЮЗ 5
{12}
10 км слабый ливневой дождь 10/10 700 м
[Cb calv]
+6.5 +5.2 91 +2 +2 1008.9 992.6
03 19.10 ЮЗ 4 4000 м в посл. час ливневой дождь 10/10 720 м
[Cb calv]
+6.8 +5.4 91 +3 +3 1009.0 992.7 +4.5 3
06 19.10 ЮЗ 6-10
{11}
4000 м дымка {ливн. осадки} 9/9 630 м
[Cb cap]
+8.2 +6.3 88 +4 +4 1009.2 993.1
09 19.10 З 6
{10}
4000 м дымка 10/10 700 м
[Sc]
+9.9 +7.8 87 +6 +6 1009.6 993.5
12 19.10 ЮЗ 5
{10}
4000 м дымка 10/10 540 м
[St]
+10.4 +8.4 87 +7 +7 1010.2 994.2
15 19.10 ЮЗ 4 4000 м дымка 9/9 720 м
[Sc]
+11.2 +9.1 87 +9 +9 1010.2 994.2 +11.2

 

Местоположение метеостанции Беляевка (Оренбургская область, Россия): широта 51.42 долгота 56.42 высота над уровнем моря 131 м.

В архиве по умолчанию представлена погода в Беляевке за последнюю неделю. Архивные данные за месяц целиком и за предыдущие месяцы, начиная с января 2011 года, Вы можете получить, выбрав интересующий диапазон дат из раскрывающегося списка и нажав кнопку "Ввод!".

Внимание! Время в таблицах - всемирное. Для получения местного времени необходимо прибавить поправку, которая в Беляевке равна 5 ч.

Смотрите также архив погоды в соседних городах и на ближайших метеорологических станциях:

Погода в Кувандыке (Оренбургская область, Россия) (66 км)
Погода в Акбулаке (Оренбургская область, Россия) (71 км)
Погода в Мартуке (Актюбинская область, Казахстан) (75 км)
Погода в Оренбурге (Оренбургская область, Россия) (96 км)
Погода в Троицком Т (Оренбургская область, Россия) (101 км)
Погода в Родниковке (Актюбинская область, Казахстан) (101 км)
Погода в Соль-Илецк (Оренбургская область, Россия) (102 км)
Погода в Зилаире (Башкирия, Россия) (112 км)
Погода в Кос-Истеке (Актюбинская область, Казахстан) (129 км)
Погода в Акъяре (Башкирия, Россия) (131 км)

Пояснения к столбцам:

Ветер - указаны скорость ветра в м/с - средняя за 10 мин, порывы в срок и между сроками (в фигурных скобках) и направление, откуда дует ветер: С - северный, СВ - северо-восточный, В - восточный, ЮВ - юго-восточный, Ю - южный, ЮЗ - юго-западный, З - западный, СЗ - северо-западный.
Видимость - горизонтальная дальность видимости в метрах или километрах. При видимости от 1 до 10 км при отсутствии осадков обычно наблюдается дымка, при ухудшении видимости до 1 км и менее - туман. В сухую погоду видимость может ухудшаться дымом, пылью или мглою.
Явления - указаны атмосферные явления, наблюдавшиеся в срок или в последний час перед сроком; фигурными скобками обозначены явления, наблюдавшиеся между сроками (за 1-3 часа до срока); квадратными скобками обозначены град или гололедные отложения с указанием их диаметра в мм.
Облачность - указаны через наклонную черту общая и нижняя облачность в баллах и высота нижней границы облаков в метрах; квадратными скобками обозначены формы облаков: Ci - перистые, Cs - перисто-слоистые, Cc - перисто-кучевые, Ac - высококучевые, As - высокослоистые, Sc - слоисто-кучевые, Ns - слоисто-дождевые, Cu - кучевые, Cb - кучево-дождевые. Подробнее классификацию облаков см. в Атласе облаков (PDF).
T - Температура воздуха - температура, измеренная на высоте 2 м над землей.
Td - Температура точки росы - температура, при понижении до которой содержащийся в воздухе водяной пар достигнет насыщения.
f - Относительная влажность воздуха - влажноcть воздуха, измеренная на высоте 2 м над землей.
Te - Эффективная температура - температура, которую ощущает одетый по сезону человек в тени. Характеристика душности погоды. При расчете учитывается влияние влажности воздуха и скорости ветра на теплоощущения человека.
Tes - Эффективная температура на солнце - температура, которую ощущает человек, с поправкой на солнечный нагрев. Характеристика знойности погоды. Зависит от высоты солнца над горизонтом, облачности и скорости ветра. Ночью, в пасмурную погоду, а также при ветре 12 м/с и более поправка равна нулю.
P - Атмосферное давление - приведенное к уровню моря атмосферное давление.
Po - Атмосферное давление - измеренное на уровне метеостанции атмосферное давление.
Tmin - Минимальная температура - минимум температуры воздуха на высоте 2 м над землей.
Tmax - Максимальная температура - максимум температуры воздуха на высоте 2 м над землей.
R - Количество осадков - Количество выпавших осадков за период времени, мм. При наведении курсора мыши на число - период времени, за который выпало указанное количество осадков.
R24 - Количество осадков - Количество выпавших осадков за 24 часа, мм.
S - Снежный покров - Высота снежного покрова, см. При наведении курсора мыши на число - состояние снежного покрова и степень покрытия местности в баллах.